DW4326 Weather Reports


time (UTC)temp
F
wind
direction
speed
knots
gust
knots
rain 1hr
in
rain 24hr
in
rain mn
in
humidity
%
barometer
mb
20260507194530 57 159 4.3 14.8 0.00 0.14 0.01 36 1005.3
20260507193024 57 5 3.5 13.9 0.00 0.16 0.01 35 1005.3
20260507191526 57 36 3.5 11.3 0.00 0.18 0.01 41 1005.6
20260507190752 57 38 4.3 13.0 0.00 0.19 0.01 40 1005.3
20260507184521 58 329 1.7 9.6 0.00 0.19 0.01 43 1005.7
20260507183753 58 9 2.6 8.7 0.00 0.20 0.01 39 1005.6
20260507181521 58 327 2.6 13.9 0.00 0.20 0.01 37 1005.9
20260507180021 57 25 1.7 11.3 0.00 0.24 0.01 40 1005.8
20260507174521 57 0 4.3 11.3 0.00 0.28 0.01 43 1006.0
20260507173022 56 171 4.3 11.3 0.00 0.33 0.01 43 1006.1
20260507171520 58 23 3.5 23.5 0.00 0.38 0.01 41 1006.3
20260507170755 56 107 2.6 18.2 0.00 0.46 0.01 42 1006.7
20260507170020 57 0 5.2 23.5 0.00 0.43 0.01 40 1006.4
20260507163022 56 86 3.5 16.5 0.00 0.54 0.01 41 1006.9
20260507161518 55 321 6.1 16.5 0.00 0.56 0.01 43 1007.0
20260507160018 55 313 3.5 13.0 0.00 0.57 0.01 46 1007.4
20260507154518 55 327 2.6 13.0 0.00 0.58 0.01 54 1007.4
20260507153018 55 38 2.6 10.4 0.00 0.59 0.01 49 1007.3
20260507151519 53 347 2.6 10.4 0.00 0.59 0.01 57 1007.3
20260507150745 52 135 2.6 12.2 0.00 0.60 0.01 50 1007.3
20260507144513 54 30 2.6 7.8 0.00 0.61 0.01 52 1007.6
20260507143745 53 19 0.9 7.8 0.00 0.62 0.01 62 1007.6
20260507142243 52 294 1.7 11.3 0.00 0.63 0.01 65 1007.6
20260507140744 51 294 0.9 6.1 0.00 0.63 0.01 65 1007.5
20260507134510 51 71 1.7 9.6 0.00 0.63 0.01 65 1007.5
20260507133011 50 34 0.9 8.7 0.00 0.63 0.01 72 1007.5
20260507131509 49 46 2.6 10.4 0.00 0.63 0.01 76 1007.3
20260507130009 47 306 0.9 4.3 0.00 0.63 0.01 84 1007.3
20260507124508 45 34 1.7 6.1 0.00 0.63 0.01 87 1007.3
20260507123008 43 49 0.0 2.6 0.00 0.63 0.01 94 1007.1
20260507122240 42 49 0.9 6.1 0.00 0.63 0.01 93 1007.2
20260507120006 42 5 3.5 7.0 0.00 0.63 0.01 94 1007.3
20260507114507 42 5 0.9 4.3 0.01 0.63 0.01 98 1007.1
20260507113005 41 310 0.0 0.9 0.01 0.63 0.01 98 1007.0
20260507112231 41 16 0.0 0.0 0.01 0.63 0.01 98 1007.0
20260507110001 40 16 0.0 0.0 0.01 0.63 0.01 98 1007.1
20260507104500 40 16 0.0 0.0 0.00 0.62 0.00 98 1007.2
20260507102959 40 16 0.0 0.0 0.00 0.62 0.00 98 1007.0
20260507101500 39 16 0.0 0.0 0.00 0.62 0.00 98 1006.9
20260507100000 39 16 0.0 0.0 0.00 0.62 0.00 98 1006.6
20260507094500 39 16 0.0 0.0 0.00 0.62 0.00 97 1006.7
20260507093000 39 16 0.0 0.0 0.00 0.62 0.00 97 1006.9
20260507091459 39 16 0.0 0.0 0.00 0.62 0.00 97 1006.9
20260507090000 39 16 0.0 0.0 0.00 0.62 0.00 97 1007.1
20260507084459 40 16 0.0 0.0 0.00 0.62 0.00 97 1007.2
20260507083001 40 16 0.0 0.0 0.00 0.62 0.00 97 1007.0
20260507081453 40 16 0.0 0.0 0.00 0.62 0.00 97 1007.2
20260507075953 40 16 0.0 0.0 0.00 0.62 0.00 98 1007.3
20260507074446 40 16 0.0 0.0 0.00 0.62 0.00 97 1007.0
20260507072944 41 16 0.0 0.0 0.00 0.62 0.00 97 1006.9
20260507071442 41 16 0.0 0.0 0.00 0.62 0.00 97 1006.6
20260507065939 41 16 0.0 0.0 0.00 0.62 0.00 97 1006.6
20260507064439 42 16 0.0 0.0 0.00 0.62 0.00 97 1006.7
20260507062938 42 16 0.0 0.0 0.00 0.62 0.00 97 1006.5
20260507062208 42 16 0.0 0.0 0.00 0.62 0.00 97 1006.5
20260507055936 42 16 0.0 0.0 0.00 0.62 0.00 97 1006.9
20260507054436 42 16 0.0 0.0 0.00 0.62 0.00 96 1007.3
20260507052929 42 16 0.0 0.0 0.00 0.62 0.00 96 1007.0
20260507051431 42 16 0.0 0.0 0.00 0.63 0.00 96 1007.1
20260507045923 42 16 0.0 0.0 0.00 0.63 0.00 96 1007.1
20260507044424 43 16 0.0 0.0 0.00 0.63 0.00 96 1007.0
20260507042922 44 16 0.0 0.0 0.00 0.63 0.00 96 1007.0
20260507041419 44 16 0.0 0.0 0.00 0.63 0.00 96 1007.0
20260507035918 44 16 0.0 0.0 0.00 0.63 0.63 96 1006.8
20260507034417 45 16 0.0 0.0 0.00 0.64 0.63 96 1006.9
20260507032918 45 16 0.0 0.0 0.00 0.64 0.63 96 1007.0
20260507031414 45 16 0.0 0.0 0.00 0.64 0.63 96 1007.0
20260507025915 46 16 0.0 0.0 0.00 0.64 0.63 96 1007.1
20260507024412 46 16 0.0 0.0 0.00 0.64 0.63 96 1007.1
20260507022912 46 16 0.0 0.0 0.01 0.64 0.63 96 1007.3
20260507022139 46 16 0.0 0.0 0.01 0.64 0.63 96 1007.5
20260507015907 46 16 0.0 0.0 0.01 0.64 0.63 96 1007.3
20260507014400 46 16 0.0 0.0 0.02 0.64 0.63 96 1007.2
20260507012902 46 16 0.0 3.5 0.01 0.63 0.62 95 1007.0
20260507011354 47 17 0.0 0.0 0.02 0.63 0.62 96 1007.1
20260507005855 47 17 0.0 0.0 0.02 0.63 0.62 95 1007.2
20260507004349 47 17 0.0 0.0 0.01 0.62 0.61 95 1006.6
20260507002849 47 15 0.0 3.5 0.01 0.62 0.61 95 1006.3
20260507002113 47 336 0.0 3.5 0.00 0.61 0.60 95 1006.2
20260507000617 48 20 0.9 3.5 0.00 0.61 0.60 95 1005.8
20260506234336 48 338 1.7 7.0 0.00 0.61 0.60 94 1005.3
20260506232836 49 347 0.9 7.8 0.00 0.61 0.60 94 1005.0
20260506232102 49 0 0.9 5.2 0.00 0.61 0.60 95 1005.1
20260506225831 49 331 0.0 0.0 0.00 0.61 0.60 96 1004.7
20260506224327 49 305 0.0 0.0 0.00 0.61 0.60 95 1004.7
20260506222829 49 306 0.0 1.7 0.00 0.61 0.60 94 1004.6
20260506221329 50 306 0.0 4.3 0.00 0.61 0.60 94 1004.4
20260506215827 50 20 1.7 4.3 0.00 0.61 0.60 94 1004.2
20260506214327 51 302 0.9 3.5 0.00 0.61 0.60 94 1004.0
20260506212822 52 351 1.7 4.3 0.02 0.61 0.60 94 1004.1
20260506211322 52 13 1.7 4.3 0.07 0.61 0.60 94 1004.0
20260506205821 53 11 1.7 7.0 0.09 0.61 0.60 94 1003.9
20260506204322 54 320 1.7 7.0 0.10 0.62 0.60 92 1003.7
20260506203554 56 5 3.5 8.7 0.11 0.63 0.58 91 1003.5
20260506202057 60 173 0.0 0.0 0.07 0.66 0.53 97 1003.1
20260506200552 60 173 0.0 0.0 0.06 0.64 0.51 97 1003.0